Overview Statistics Trail Chart Weather Telemetry Raw packets
 

This is the latest recevied weather packets stored in our database for station/object K5FEP. If no packets are shown the sender has not sent any weather packets the latest 10 day(s).

<< 104 105 106 107 108 109 110 >>
Time Temp. Humidity Pressure Rain* Wind** Luminosity Snow
1787854856 30.56° C 59% 1014.5 hPa 0 mm - 252 W/m² -
1787854555 30.56° C 59% 1014.5 hPa 0 mm - 249 W/m² -
1787854250 31.11° C 58% 1014.7 hPa 0 mm - 284 W/m² -
1787853950 31.11° C 59% 1014.6 hPa 0 mm - 326 W/m² -
1787853644 31.11° C 59% 1014.7 hPa 0 mm - 354 W/m² -
1787853344 31.67° C 57% 1014.5 hPa 0 mm - 507 W/m² -
1787853039 31.67° C 58% 1014.6 hPa 0 mm - 452 W/m² -
1787852739 31.67° C 57% 1014.6 hPa 0 mm - 850 W/m² -
1787852437 30.56° C 58% 1014.8 hPa 0 mm - 416 W/m² -
1787852132 30.56° C 59% 1014.9 hPa 0 mm - 424 W/m² -
1787851827 30.56° C 59% 1014.9 hPa 0 mm - 791 W/m² -
1787851527 30.56° C 61% 1015.1 hPa 0 mm - 845 W/m² -
1787851226 30° C 62% 1015 hPa 0 mm - 633 W/m² -
1787850922 30° C 62% 1015.3 hPa 0 mm - 525 W/m² -
1787850619 30° C 62% 1015.3 hPa 0 mm - 513 W/m² -
1787850313 30° C 62% 1015.4 hPa 0 mm - 628 W/m² -
1787850009 30° C 62% 1015.5 hPa 0 mm - 509 W/m² -
1787849702 29.44° C 63% 1015.5 hPa 0 mm - 517 W/m² -
1787849398 30° C 62% 1015.5 hPa 0 mm - 491 W/m² -
1787849096 30° C 61% 1015.5 hPa 0 mm - 403 W/m² -
1787848791 29.44° C 64% 1015.6 hPa 0 mm - 367 W/m² -
1787848490 28.89° C 64% 1015.5 hPa 0 mm - 427 W/m² -
1787848185 28.89° C 63% 1015.6 hPa 0 mm - 434 W/m² -
1787847885 28.89° C 64% 1015.6 hPa 0 mm - 411 W/m² -
1787847580 28.89° C 65% 1015.8 hPa 0 mm - 366 W/m² -

* Rain latest hour (hover to see other rain measurements)
** Current wind speed in m/s (hover to see current wind gust speed)